Location: *
(32.8667°N, 13.1833°E)
Time: 09:56:39
(UTC+00:00)

H-2A R/B - Pass Details

Date: 18 July 2019
Orbit: 733 x 838 km, 98.3° (Epoch: 25 August)

Event Time Altitude Azimuth Distance (km) Brightness Sun altitude
Exits shadow 19:25:16 - 168° (SSE) 2,500 4.2 -13.4°
Reaches altitude 10° 19:25:25 10° 168° (SSE) 2,442 4.2 -13.4°
Maximum altitude 19:30:51 86° 255° (WSW) 841 2.2 -14.4°
Drops below altitude 10° 19:36:17 10° 347° (NNW) 2,432 5.4 -15.3°
Sets 19:38:38 0° 347° (NNW) 3,358 6.2 -15.7°
